Skip Page Navigation
NASA JPL Caltech
NASA Logo - Jet Propulsion Laboratory + View the NASA Portal
+ Center for Near-Earth Object Studies
JPL Home Earth Solar System Stars & Galaxies Technology
JPL Solar System Dynamics
BODIES ORBITS EPHEMERIDES TOOLS PHYSICAL DATA DISCOVERY FAQ SITE MAP
JPL Small-Body Database Browser
Search: [ help ]  
35186 (1993 VV1)
Classification: Main-belt Asteroid          SPK-ID: 2035186
Ephemeris | Orbit Diagram | Orbital Elements | Mission Design | Physical Parameters | Discovery Circumstances | Close-Approach Data ]

[ show orbit diagram ]
Orbital Elements at Epoch 2459000.5 (2020-May-31.0) TDB
Reference: JPL 23 (heliocentric ecliptic J2000)
 Element Value Uncertainty (1-sigma)   Units 
e .1718247817345485 3.1618e-08  
a 2.390953371632303 7.9233e-09 au
q 1.9801283304141 7.6854e-08 au
i 1.985912489418843 4.554e-06 deg
node 351.0570734805847 0.00011169 deg
peri 97.97064709946555 0.00011304 deg
M 35.83385109414809 1.4711e-05 deg
tp 2458866.085515544646
(2020-Jan-17.58551554)
5.5202e-05 TDB
period 1350.377169252395
3.70
6.7125e-06
1.838e-08
d
yr
n .2665921849073513 1.3252e-09 deg/d
Q 2.801778412850506 9.2847e-09 au
  Orbit Determination Parameters
   # obs. used (total)      1265  
   data-arc span      9579 days (26.23 yr)  
   first obs. used      1993-11-11  
   last obs. used      2020-02-02  
   planetary ephem.      DE431  
   SB-pert. ephem.      SB431-N16  
   condition code      0  
   norm. resid. RMS      .49985  
   source      ORB  
   producer      Otto Matic  
   solution date      2020-Feb-23 03:44:30  

Additional Information
 Earth MOID = .99777 au 
 Jupiter MOID = 2.39558 au 
 T_jup = 3.511 
[ show covariance matrix ]

Ephemeris | Orbit Diagram | Orbital Elements | Mission Design | Physical Parameters | Discovery Circumstances | Close-Approach Data ]

Physical Parameter Table
Parameter Symbol Value Units Sigma Reference Notes
absolute magnitude H 15.0   n/a MPO351076  

35186 (1993 VV1)          Discovered 1993-Nov-11 by Ueda, S., Kaneda, H. at Kushiro
Reference: 20020227/Numbers.arcLast Updated: 2004-04-19

[ show close-approach data ]
Alternate Designations
 1993 VV1 = 2000 QX3 
Ephemeris | Orbit Diagram | Orbital Elements | Mission Design | Physical Parameters | Discovery Circumstances | Close-Approach Data ]
ABOUT SSD CREDITS/AWARDS PRIVACY/COPYRIGHT GLOSSARY LINKS
FirstGov 2020-Oct-01 05:51 UT
(server date/time)  
NASA Home Page
Site Manager:   Ryan S. Park
Webmaster  Alan B. Chamberlin